Showing default

LEMUR 2 JK0903EM1407, 58336

Orbit data source: Space-Track

LEMUR 2 JK0903EM1407, 58336 is an American payload satellite in SSO that was launched on Sat, 11 Nov 2023 UTC via an FALCON 9 launch vehicle from the Air Force Western Test Range (AFWTR). Payload-class satellites include a variety of spacecraft equipped with specific instruments for various scientific and technological missions. These include communications satellites like Starlink; space stations such as the ISS; scientific satellites like the Hubble; Earth observation satellites from companies like Planet Labs, Umbra, and HawkEye 360; GPS; miniature CubeSats for education and research; and military/defense satellites.

Loading next visibility...
Identifier
58336, 2023-174CJ
Orbit
SSO
Country
Flag of USUS
Related business
Manufacturer
Spire/Glasgow
Mission
Operational Commercial Earth Obs Sci
Bus & Motor
CUBESAT 16U, Unknown motor
Mass
~20 kg wet, ~20 kg dry
Launch date (UTC)
2023-11-11 (2 years ago)
Launch vehicle
FALCON 9
Launch site
Air Force Western Test Range (AFWTR)
Object type
Payload
Rocket body
Debris
Shape & HBR
Box, 0.2 m
Radar Cross Section
0.240 m², Medium (>0.1 m² and < 1m²)

Expand to show TLE details & history
Last TLE update: 6 hours ago

TLE from 6 hours ago
0 LEMUR 2 JK0903EM1407
1 58336U 23174CJ  25288.90771207  .00023298  00000-0  60388-3 0  9992
2 58336  97.4078   9.7206 0005594 275.9952  84.0656 15.39013887108001
Epoch: 2025-10-15T21:47Z
TLE epoch observation values (Epoch: 2025-10-15T21:47:06.322Z)
Latitude
-0.00003°
Longitude
18.26921°
Altitude
451.747 km
Speed
7.642 km/s
True Right ascension
00h 38m 52s
True Declination
0° 00' 00"
Sunlit
Object was in full shadow at epoch
Visualization orbit readout
Latitude
Unknown
Longitude
Unknown
Altitude
Unknown
Speed
Unknown
Apparent Right ascension
Unknown
Apparent Declination
Unknown
Sunlit
N/A
Visualization observer readout
Local Sidereal Time
22:01:40
Azimuth
Unknown
Elevation
Unknown
Doppler factor
Unknown
Orbital elements
Apogee altitude
449.782 km
Perigee altitude
442.147 km
Semi-major axis
6,824.102 km
Eccentricity
0.00056
Inclination
97.4078°
RAAN
9.7206°
Arg. of periapsis
275.9952°
True anomaly
84.12936°
Mean anomaly
84.0656°
Eccentric anomaly
84.09748°
Mean motion
3.85013 °/min
Orbital period
93.5 mins
BSTAR
0.00060388
Loading maneuver chart data...
Computing Atmospheric mass density...
Loading historical data...
Loading historical data...
Loading historical data...
Loading historical data...
Loading historical data...
Loading historical data...
Loading historical data...

Documentation

Showing up to 5 results
|